AirNav   Everest Fuels
 
 845 users online  

CYAM Sault Ste Marie Airport
Sault Ste Marie, Ontario, Canada

GOING TO SAULT STE MARIE?


FAA INFORMATION EFFECTIVE 15 AUGUST 2019

The information below comes from the U.S. Federal Aviation Administration (FAA). The FAA is not the official source of data for facilities located outside the United States, and THESE RECORDS ARE LIKELY NOT COMPLETE OR CORRECT.

Location

FAA Identifier: CYAM
Lat/Long: 46-29-06.0000N 084-30-34.0000W
46-29.100000N 084-30.566667W
46.4850000,-84.5094444
(estimated)
Elevation: 630 ft. / 192 m (estimated)
Variation: 07W ()
From city: 8 miles WSW of SAULT STE MARIE,
Time zone: UTC -4 (UTC -5 during Standard Time)
Zip code: 49710

Airport Operations

Airport use: Open to the public
Activation date: 03/2005
Control tower: no
ARTCC: TORONTO CENTER
FSS: LONDON FIC FLIGHT SERVICE STATION
Attendance: 
Segmented circle: no

Airport Communications

WX ASOS at ANJ (6 nm E): 118.375 (906-632-8501)
WX AWOS-3PT at CIU (14 nm S): 127.575 (906-495-7134)

Nearby radio navigation aids

VOR radial/distance  VOR name  Freq  Var
SSMr303/9.2SAULT STE MARIE VOR/DME112.2004W

 
NDB name  Hdg/Dist  Freq  Var  ID
KOLOE015/9.340007WCI -.-. ..

Airport Services

Runway Information

Runway 4/22

Dimensions: 6000 x 200 ft. / 1829 x 61 m
Surface: asphalt
RUNWAY 4  RUNWAY 22
Traffic pattern: leftleft

Runway 12/30

Dimensions: 6000 x 200 ft. / 1829 x 61 m
Surface: asphalt
RUNWAY 12  RUNWAY 30
Traffic pattern: leftleft

Airport Ownership and Management from official FAA records

Ownership: Publicly-owned

Instrument Procedures

There are no published instrument procedures at CYAM.

Some nearby airports with instrument procedures:

KANJ - Sault Ste Marie Municipal Airport/Sanderson Field (6 nm E)
KCIU - Chippewa County International Airport (14 nm S)
83D - Mackinac County Airport (37 nm S)
KMCD - Mackinac Island Airport (38 nm S)
KERY - Luce County Airport (41 nm W)
 
Loc | Ops | Rwys | IFR | FBO | Links
Com | Nav | Svcs | Stats | Notes
Aerial photo
No photo
 
Airport distance calculator
Flying to Sault Ste Marie Airport? Find the distance to fly.

From to CYAM

Sunrise and sunset
Times for 17-Aug-2019
 Local
(UTC-4)
 Zulu
(UTC)
Morning civil twilight06:0710:07
Sunrise06:4010:40
Sunset20:4400:44
Evening civil twilight21:1701:17

Current date and time
Zulu (UTC)  18-Aug-2019 00:17:41
Local (UTC-4)  17-Aug-2019 20:17:41
 
METAR
CYAM 172300Z 24007KT 25SM FEW020TCU FEW320 FEW360 21/17 A2986 RMK TCU1CI1CI1 CI TR TCU E-W HIER LYR CONTRAILS SLP114 DENSITY ALT 1600FT
KANJ 
6nm E 
172355Z AUTO 23004KT 10SM CLR 21/17 A2986 RMK AO2 SLP108 T02110167 10250 20211 58002
KCIU 
14nm S 
180004Z AUTO 22004KT 10SM BKN029 23/18 A2988 RMK AO2
TAF
CYAM 171939Z 1720/1808 29010KT P6SM SCT025 BECMG 1723/1801 VRB03KT FEW030 RMK NXT FCST BY 180200Z
NOTAMs
Click for the latest NOTAMs
NOTAMs are issued by the DoD/FAA and will open in a separate window not controlled by AirNav.

 

 
 

Would you like to see your business listed on this page?

 If your business provides an interesting product or service to pilots, flight crews, aircraft, or users of the Sault Ste Marie Airport, you should consider listing it here.  To start the listing process, click on the button below
 
Add a business
 

Other Pages about Sault Ste Marie Airport

Update a link
 
Copyright © AirNav, LLC. All rights reserved. Privacy Policy  Contact